QPF
0.00 0.00 0.00 0.00 0.00 0.00 0.00 0.00 0.00 0.00 0.00 0.00 0.00 0.00 0.00 0.00 0.00 0.00 0.00 0.00 0.00 0.00 0.00 0.00 0.00 0.00 0.00 0.00 0.00 0.00 0.00 0.00 0.01 0.01 0.01 0.02 0.02 0.03 0.05 0.04 0.07 0.09 0.09
0.00 0.00 0.00 0.00 0.00 0.00 0.00 0.00 0.00 0.00 0.00 0.00 0.00 0.00 0.00 0.00 0.00 0.00 0.00 0.00 0.01 0.01 0.01 0.01 0.01 0.00 0.00 0.00 0.00 0.00 0.00 0.01 0.01 0.01 0.01 0.02 0.02 0.03 0.03 0.04 0.05 0.07 0.09
0.00 0.00 0.00 0.00 0.00 0.00 0.00 0.00 0.00 0.00 0.00 0.00 0.00 0.00 0.00 0.00 0.00 0.00 0.00 0.01 0.01 0.01 0.01 0.01 0.01 0.01 0.01 0.01 0.01 0.00 0.00 0.00 0.01 0.00 0.00 0.01 0.01 0.02 0.03 0.03 0.03 0.06 0.08
0.00 0.00 0.00 0.00 0.00 0.00 0.00 0.00 0.00 0.00 0.00 0.00 0.00 0.00 0.00 0.00 0.00 0.00 0.01 0.01 0.01 0.01 0.01 0.01 0.01 0.01 0.01 0.01 0.01 0.00 0.00 0.00 0.01 0.01 0.00 0.00 0.01 0.02 0.05 0.06 0.05 0.05 0.07
0.00 0.00 0.00 0.00 0.00 0.00 0.00 0.00 0.00 0.00 0.00 0.00 0.00 0.00 0.00 0.00 0.00 0.00 0.01 0.01 0.01 0.01 0.01 0.01 0.01 0.01 0.01 0.00 0.00 0.00 0.00 0.00 0.00 0.01 0.01 0.01 0.01 0.03 0.05 0.08 0.08 0.07 0.07
0.00 0.00 0.00 0.00 0.00 0.00 0.00 0.00 0.00 0.00 0.00 0.00 0.00 0.00 0.00 0.00 0.00 0.00 0.00 0.00 0.01 0.01 0.01 0.02 0.01 0.01 0.00 0.00 0.00 0.00 0.00 0.01 0.01 0.01 0.01 0.01 0.01 0.02 0.06 0.10 0.12 0.10 0.08
0.00 0.00 0.00 0.00 0.00 0.00 0.00 0.00 0.00 0.00 0.00 0.00 0.00 0.00 0.00 0.00 0.00 0.00 0.00 0.00 0.00 0.01 0.01 0.02 0.01 0.01 0.01 0.01 0.01 0.00 0.00 0.00 0.00 0.01 0.01 0.01 0.01 0.02 0.05 0.10 0.13 0.15 0.12
0.00 0.00 0.00 0.00 0.00 0.00 0.00 0.00 0.00 0.00 0.00 0.00 0.00 0.00 0.00 0.00 0.00 0.00 0.00 0.00 0.00 0.01 0.01 0.02 0.02 0.03 0.02 0.02 0.02 0.02 0.02 0.01 0.00 0.00 0.00 0.01 0.01 0.03 0.05 0.10 0.17 0.21 0.23
0.00 0.00 0.00 0.00 0.00 0.00 0.00 0.00 0.00 0.00 0.00 0.00 0.00 0.00 0.00 0.00 0.00 0.00 0.00 0.00 0.00 0.01 0.01 0.02 0.02 0.03 0.02 0.01 0.02 0.03 0.03 0.02 0.00 0.00 0.00 0.00 0.00 0.01 0.02 0.07 0.15 0.21 0.24
0.00 0.00 0.00 0.00 0.00 0.00 0.00 0.00 0.00 0.00 0.00 0.00 0.00 0.00 0.00 0.00 0.00 0.00 0.00 0.00 0.00 0.01 0.02 0.02 0.01 0.01 0.01 0.00 0.01 0.03 0.03 0.03 0.02 0.01 0.01 0.00 0.00 0.00 0.01 0.03 0.08 0.16 0.21
0.00 0.00 0.00 0.00 0.00 0.00 0.00 0.00 0.00 0.00 0.00 0.00 0.00 0.00 0.00 0.00 0.00 0.00 0.00 0.00 0.01 0.01 0.01 0.01 0.02 0.00 0.00 0.00 0.01 0.02 0.02 0.03 0.04 0.04 0.03 0.02 0.02 0.02 0.03 0.03 0.06 0.12 0.17
0.00 0.00 0.00 0.00 0.00 0.00 0.00 0.00 0.00 0.00 0.00 0.00 0.00 0.00 0.00 0.01 0.01 0.00 0.00 0.00 0.00 0.01 0.01 0.01 0.01 0.00 0.00 0.00 0.00 0.00 0.00 0.00 0.02 0.04 0.04 0.03 0.02 0.02 0.04 0.06 0.07 0.11 0.18
0.00 0.00 0.00 0.00 0.00 0.00 0.00 0.00 0.00 0.00 0.00 0.00 0.00 0.00 0.00 0.01 0.02 0.00 0.00 0.00 0.00 0.00 0.01 0.01 0.01 0.00 0.00 0.01 0.00 0.00 0.00 0.01 0.03 0.04 0.04 0.03 0.03 0.04 0.05 0.08 0.11 0.15 0.19
0.00 0.00 0.00 0.00 0.00 0.00 0.00 0.00 0.00 0.00 0.00 0.00 0.00 0.01 0.01 0.01 0.02 0.03 0.02 0.01 0.01 0.00 0.01 0.01 0.00 0.01 0.01 0.01 0.02 0.01 0.01 0.03 0.05 0.05 0.05 0.06 0.07 0.07 0.07 0.09 0.10 0.14 0.18
0.00 0.00 0.00 0.00 0.00 0.00 0.00 0.00 0.00 0.00 0.00 0.00 0.01 0.01 0.01 0.01 0.02 0.01 0.01 0.01 0.01 0.01 0.01 0.01 0.02 0.04 0.05 0.06 0.07 0.07 0.07 0.06 0.05 0.08 0.10 0.10 0.10 0.09 0.08 0.10 0.12 0.14 0.16
0.00 0.00 0.00 0.00 0.00 0.00 0.00 0.00 0.00 0.00 0.00 0.00 0.00 0.00 0.00 0.00 0.00 0.00 0.01 0.01 0.01 0.01 0.01 0.02 0.03 0.06 0.07 0.10 0.11 0.12 0.12 0.12 0.11 0.10 0.12 0.13 0.12 0.10 0.10 0.12 0.14 0.15 0.16
0.00 0.00 0.00 0.00 0.00 0.00 0.00 0.00 0.00 0.00 0.00 0.00 0.00 0.00 0.00 0.00 0.00 0.01 0.01 0.01 0.01 0.01 0.01 0.02 0.04 0.05 0.08 0.11 0.12 0.13 0.13 0.14 0.13 0.13 0.13 0.14 0.14 0.13 0.12 0.12 0.14 0.16 0.18
0.00 0.00 0.00 0.00 0.00 0.00 0.00 0.00 0.00 0.00 0.00 0.01 0.01 0.01 0.00 0.00 0.00 0.01 0.01 0.01 0.01 0.01 0.02 0.03 0.05 0.06 0.08 0.11 0.14 0.15 0.16 0.15 0.15 0.14 0.14 0.14 0.15 0.15 0.13 0.12 0.13 0.14 0.17
0.00 0.00 0.00 0.00 0.00 0.00 0.00 0.00 0.00 0.00 0.00 0.01 0.03 0.04 0.02 0.01 0.01 0.01 0.02 0.02 0.02 0.03 0.04 0.04 0.04 0.05 0.05 0.07 0.12 0.14 0.16 0.16 0.15 0.16 0.17 0.16 0.17 0.17 0.14 0.12 0.13 0.14 0.16
0.00 0.00 0.00 0.00 0.00 0.00 0.00 0.00 0.00 0.00 0.01 0.02 0.04 0.05 0.04 0.02 0.04 0.04 0.04 0.04 0.03 0.04 0.04 0.04 0.05 0.06 0.05 0.07 0.10 0.13 0.15 0.16 0.16 0.16 0.18 0.16 0.17 0.18 0.16 0.13 0.13 0.13 0.14
0.00 0.01 0.01 0.00 0.00 0.00 0.00 0.00 0.00 0.00 0.01 0.02 0.04 0.04 0.02 0.01 0.03 0.05 0.06 0.06 0.06 0.06 0.05 0.04 0.05 0.06 0.05 0.07 0.08 0.11 0.13 0.14 0.17 0.17 0.17 0.17 0.17 0.18 0.19 0.18 0.15 0.14 0.15
0.01 0.01 0.01 0.00 0.00 0.00 0.00 0.00 0.00 0.00 0.01 0.03 0.04 0.04 0.02 0.03 0.05 0.05 0.06 0.07 0.07 0.07 0.06 0.05 0.05 0.05 0.05 0.06 0.09 0.11 0.12 0.13 0.16 0.17 0.16 0.17 0.17 0.17 0.18 0.19 0.18 0.16 0.17
0.01 0.01 0.01 0.01 0.01 0.01 0.01 0.01 0.00 0.00 0.01 0.03 0.04 0.04 0.04 0.05 0.06 0.07 0.07 0.08 0.08 0.08 0.08 0.06 0.05 0.05 0.06 0.05 0.07 0.08 0.10 0.12 0.14 0.14 0.16 0.18 0.17 0.17 0.17 0.17 0.16 0.15 0.15
0.01 0.01 0.02 0.02 0.02 0.01 0.01 0.01 0.01 0.00 0.01 0.02 0.02 0.03 0.04 0.04 0.05 0.06 0.06 0.07 0.07 0.08 0.08 0.07 0.05 0.05 0.05 0.06 0.06 0.06 0.07 0.09 0.11 0.13 0.14 0.18 0.18 0.17 0.17 0.16 0.16 0.15 0.15
0.01 0.02 0.02 0.02 0.01 0.01 0.01 0.01 0.01 0.00 0.01 0.02 0.02 0.03 0.03 0.03 0.05 0.05 0.05 0.06 0.06 0.08 0.08 0.07 0.07 0.05 0.05 0.05 0.05 0.05 0.04 0.03 0.06 0.10 0.12 0.14 0.15 0.15 0.16 0.15 0.15 0.15 0.15
0.02 0.02 0.02 0.02 0.01 0.01 0.01 0.01 0.00 0.00 0.01 0.01 0.02 0.03 0.02 0.02 0.03 0.04 0.05 0.06 0.06 0.06 0.06 0.07 0.07 0.06 0.05 0.05 0.04 0.03 0.01 0.02 0.03 0.05 0.09 0.11 0.13 0.14 0.14 0.14 0.14 0.13 0.13
MSLP
1014.70 1014.91 1015.08 1015.20 1015.26 1015.26 1015.21 1015.13 1015.03 1014.95 1014.88 1014.83 1014.79 1014.76 1014.72 1014.65 1014.56 1014.42 1014.26 1014.08 1013.88 1013.69 1013.50 1013.32 1013.15 1012.98 1012.80 1012.61 1012.41 1012.20 1011.99 1011.78 1011.58 1011.41 1011.25 1011.13 1011.03 1010.95 1010.89 1010.84 1010.81 1010.80 1010.83
1014.31 1014.46 1014.58 1014.66 1014.68 1014.66 1014.59 1014.50 1014.40 1014.32 1014.27 1014.25 1014.24 1014.25 1014.25 1014.23 1014.17 1014.08 1013.94 1013.77 1013.58 1013.38 1013.18 1012.99 1012.80 1012.62 1012.45 1012.27 1012.09 1011.91 1011.73 1011.55 1011.38 1011.22 1011.08 1010.96 1010.86 1010.78 1010.71 1010.65 1010.62 1010.61 1010.64
1013.91 1014.02 1014.09 1014.13 1014.11 1014.06 1013.97 1013.88 1013.79 1013.72 1013.68 1013.69 1013.71 1013.76 1013.79 1013.81 1013.78 1013.71 1013.59 1013.43 1013.24 1013.03 1012.82 1012.61 1012.42 1012.23 1012.06 1011.90 1011.75 1011.60 1011.45 1011.30 1011.15 1011.01 1010.88 1010.77 1010.66 1010.58 1010.51 1010.47 1010.45 1010.46 1010.51
1013.53 1013.60 1013.64 1013.64 1013.60 1013.53 1013.43 1013.33 1013.24 1013.18 1013.16 1013.19 1013.24 1013.30 1013.36 1013.40 1013.39 1013.32 1013.20 1013.04 1012.84 1012.62 1012.39 1012.18 1011.98 1011.81 1011.66 1011.52 1011.40 1011.28 1011.16 1011.04 1010.91 1010.79 1010.66 1010.55 1010.44 1010.36 1010.30 1010.27 1010.27 1010.31 1010.40
1013.16 1013.22 1013.25 1013.23 1013.18 1013.09 1012.98 1012.88 1012.79 1012.74 1012.73 1012.76 1012.82 1012.89 1012.95 1012.98 1012.96 1012.89 1012.76 1012.58 1012.36 1012.13 1011.90 1011.69 1011.51 1011.36 1011.23 1011.14 1011.05 1010.97 1010.89 1010.79 1010.68 1010.56 1010.43 1010.30 1010.19 1010.10 1010.05 1010.03 1010.06 1010.14 1010.27
1012.82 1012.89 1012.93 1012.91 1012.85 1012.75 1012.64 1012.53 1012.44 1012.39 1012.37 1012.40 1012.44 1012.49 1012.53 1012.54 1012.49 1012.39 1012.23 1012.03 1011.80 1011.56 1011.33 1011.14 1010.98 1010.87 1010.79 1010.74 1010.70 1010.67 1010.62 1010.54 1010.44 1010.32 1010.18 1010.04 1009.91 1009.81 1009.75 1009.75 1009.80 1009.91 1010.08
1012.50 1012.60 1012.66 1012.65 1012.59 1012.49 1012.38 1012.26 1012.16 1012.08 1012.05 1012.04 1012.06 1012.08 1012.07 1012.04 1011.95 1011.81 1011.62 1011.39 1011.15 1010.91 1010.70 1010.53 1010.41 1010.34 1010.31 1010.32 1010.33 1010.34 1010.33 1010.27 1010.18 1010.06 1009.90 1009.74 1009.59 1009.47 1009.40 1009.40 1009.46 1009.60 1009.80
1012.18 1012.33 1012.41 1012.42 1012.37 1012.27 1012.14 1012.00 1011.88 1011.77 1011.70 1011.66 1011.63 1011.60 1011.55 1011.46 1011.33 1011.16 1010.94 1010.69 1010.44 1010.21 1010.02 1009.88 1009.80 1009.78 1009.81 1009.86 1009.93 1009.98 1009.99 1009.96 1009.87 1009.74 1009.58 1009.39 1009.22 1009.08 1008.99 1008.97 1009.03 1009.18 1009.41
1011.84 1012.04 1012.15 1012.18 1012.13 1012.02 1011.88 1011.71 1011.55 1011.41 1011.29 1011.20 1011.12 1011.04 1010.94 1010.82 1010.66 1010.45 1010.22 1009.97 1009.72 1009.51 1009.34 1009.23 1009.18 1009.20 1009.27 1009.36 1009.47 1009.55 1009.59 1009.57 1009.49 1009.36 1009.18 1008.98 1008.78 1008.61 1008.50 1008.47 1008.52 1008.67 1008.90
1011.48 1011.71 1011.85 1011.89 1011.84 1011.72 1011.55 1011.35 1011.15 1010.97 1010.80 1010.66 1010.54 1010.42 1010.29 1010.14 1009.96 1009.75 1009.51 1009.27 1009.04 1008.84 1008.69 1008.59 1008.57 1008.61 1008.69 1008.81 1008.93 1009.03 1009.08 1009.08 1009.01 1008.87 1008.69 1008.48 1008.27 1008.08 1007.95 1007.90 1007.93 1008.07 1008.30
1011.07 1011.33 1011.48 1011.52 1011.46 1011.33 1011.13 1010.90 1010.66 1010.44 1010.23 1010.05 1009.89 1009.75 1009.61 1009.45 1009.28 1009.08 1008.87 1008.64 1008.43 1008.24 1008.10 1008.01 1007.98 1008.01 1008.09 1008.20 1008.31 1008.41 1008.46 1008.46 1008.40 1008.27 1008.09 1007.89 1007.67 1007.48 1007.34 1007.27 1007.29 1007.41 1007.64
1010.61 1010.88 1011.03 1011.07 1011.00 1010.84 1010.62 1010.37 1010.09 1009.83 1009.60 1009.40 1009.22 1009.08 1008.94 1008.81 1008.66 1008.49 1008.30 1008.11 1007.91 1007.73 1007.58 1007.47 1007.41 1007.41 1007.45 1007.52 1007.60 1007.67 1007.72 1007.72 1007.66 1007.55 1007.39 1007.20 1006.99 1006.81 1006.66 1006.59 1006.61 1006.72 1006.95
1010.10 1010.35 1010.50 1010.53 1010.45 1010.28 1010.04 1009.76 1009.47 1009.19 1008.94 1008.73 1008.56 1008.43 1008.32 1008.21 1008.10 1007.98 1007.83 1007.65 1007.47 1007.28 1007.10 1006.95 1006.84 1006.77 1006.75 1006.76 1006.79 1006.83 1006.85 1006.84 1006.80 1006.71 1006.58 1006.41 1006.24 1006.07 1005.94 1005.88 1005.90 1006.01 1006.25
1009.53 1009.77 1009.90 1009.92 1009.83 1009.65 1009.40 1009.12 1008.82 1008.53 1008.28 1008.08 1007.92 1007.82 1007.74 1007.67 1007.61 1007.52 1007.40 1007.24 1007.05 1006.84 1006.63 1006.42 1006.24 1006.09 1005.98 1005.92 1005.89 1005.88 1005.88 1005.87 1005.83 1005.77 1005.67 1005.55 1005.41 1005.28 1005.19 1005.14 1005.17 1005.31 1005.55
1008.91 1009.12 1009.23 1009.24 1009.15 1008.97 1008.73 1008.45 1008.15 1007.87 1007.63 1007.44 1007.31 1007.23 1007.19 1007.16 1007.12 1007.06 1006.96 1006.81 1006.61 1006.37 1006.10 1005.83 1005.56 1005.33 1005.14 1005.00 1004.90 1004.85 1004.83 1004.81 1004.79 1004.76 1004.71 1004.63 1004.54 1004.45 1004.39 1004.38 1004.44 1004.60 1004.88
1008.24 1008.41 1008.49 1008.50 1008.41 1008.25 1008.02 1007.75 1007.48 1007.22 1006.99 1006.82 1006.71 1006.65 1006.63 1006.62 1006.60 1006.55 1006.46 1006.30 1006.07 1005.79 1005.47 1005.13 1004.80 1004.49 1004.22 1004.02 1003.88 1003.79 1003.75 1003.73 1003.73 1003.73 1003.71 1003.68 1003.64 1003.60 1003.58 1003.61 1003.71 1003.91 1004.23
1007.52 1007.65 1007.72 1007.72 1007.64 1007.49 1007.29 1007.05 1006.80 1006.56 1006.35 1006.20 1006.10 1006.05 1006.03 1006.02 1006.00 1005.95 1005.84 1005.66 1005.40 1005.08 1004.72 1004.32 1003.93 1003.57 1003.26 1003.01 1002.84 1002.73 1002.68 1002.68 1002.69 1002.72 1002.74 1002.75 1002.74 1002.74 1002.77 1002.84 1002.98 1003.23 1003.59
1006.77 1006.86 1006.91 1006.90 1006.84 1006.71 1006.54 1006.33 1006.10 1005.89 1005.70 1005.56 1005.46 1005.40 1005.37 1005.35 1005.31 1005.23 1005.09 1004.87 1004.59 1004.24 1003.84 1003.41 1002.99 1002.61 1002.27 1002.01 1001.83 1001.72 1001.68 1001.69 1001.72 1001.77 1001.81 1001.84 1001.87 1001.90 1001.96 1002.07 1002.26 1002.55 1002.97
1006.02 1006.06 1006.09 1006.08 1006.03 1005.93 1005.78 1005.60 1005.41 1005.22 1005.04 1004.90 1004.80 1004.72 1004.67 1004.61 1004.53 1004.41 1004.23 1003.98 1003.66 1003.29 1002.87 1002.44 1002.02 1001.63 1001.31 1001.06 1000.89 1000.80 1000.78 1000.80 1000.85 1000.90 1000.96 1001.00 1001.04 1001.09 1001.17 1001.32 1001.55 1001.89 1002.36
1005.30 1005.30 1005.31 1005.29 1005.25 1005.16 1005.04 1004.89 1004.73 1004.56 1004.40 1004.26 1004.14 1004.04 1003.95 1003.85 1003.72 1003.55 1003.32 1003.04 1002.69 1002.30 1001.88 1001.45 1001.05 1000.69 1000.40 1000.19 1000.05 999.99 999.99 1000.02 1000.08 1000.14 1000.19 1000.23 1000.27 1000.32 1000.42 1000.58 1000.84 1001.23 1001.75
1004.67 1004.63 1004.61 1004.58 1004.54 1004.47 1004.36 1004.24 1004.10 1003.95 1003.80 1003.66 1003.53 1003.40 1003.27 1003.12 1002.94 1002.71 1002.44 1002.11 1001.74 1001.33 1000.92 1000.51 1000.14 999.82 999.58 999.41 999.32 999.29 999.31 999.35 999.41 999.46 999.50 999.53 999.56 999.61 999.70 999.88 1000.17 1000.58 1001.15
1004.17 1004.09 1004.04 1004.00 1003.94 1003.87 1003.78 1003.68 1003.56 1003.43 1003.29 1003.16 1003.02 1002.86 1002.69 1002.50 1002.26 1001.98 1001.65 1001.28 1000.88 1000.46 1000.05 999.66 999.33 999.05 998.85 998.73 998.68 998.68 998.72 998.78 998.84 998.88 998.90 998.91 998.92 998.95 999.05 999.23 999.53 999.97 1000.57
1003.87 1003.75 1003.66 1003.59 1003.52 1003.44 1003.36 1003.26 1003.16 1003.05 1002.93 1002.79 1002.65 1002.48 1002.27 1002.03 1001.74 1001.41 1001.03 1000.61 1000.17 999.74 999.32 998.94 998.63 998.39 998.23 998.15 998.13 998.16 998.22 998.28 998.34 998.37 998.37 998.36 998.36 998.38 998.46 998.64 998.95 999.41 1000.03
1003.79 1003.64 1003.50 1003.39 1003.29 1003.19 1003.10 1003.01 1002.92 1002.83 1002.72 1002.60 1002.45 1002.27 1002.04 1001.76 1001.42 1001.03 1000.60 1000.13 999.65 999.18 998.74 998.36 998.06 997.83 997.70 997.64 997.65 997.70 997.78 997.85 997.91 997.93 997.93 997.91 997.89 997.90 997.98 998.16 998.46 998.92 999.55
1003.95 1003.75 1003.57 1003.41 1003.27 1003.15 1003.04 1002.95 1002.86 1002.78 1002.68 1002.57 1002.43 1002.23 1001.98 1001.66 1001.28 1000.84 1000.35 999.83 999.30 998.79 998.32 997.92 997.61 997.39 997.26 997.22 997.25 997.32 997.41 997.49 997.56 997.59 997.58 997.56 997.54 997.55 997.63 997.80 998.10 998.55 999.16
1004.33 1004.08 1003.85 1003.64 1003.45 1003.29 1003.15 1003.05 1002.96 1002.88 1002.80 1002.69 1002.55 1002.35 1002.08 1001.73 1001.31 1000.82 1000.27 999.70 999.11 998.56 998.05 997.63 997.29 997.07 996.94 996.91 996.95 997.03 997.13 997.23 997.31 997.35 997.36 997.35 997.33 997.34 997.42 997.58 997.87 998.29 998.88
Thickness
5695 5690 5684 5680 5676 5671 5666 5662 5658 5654 5649 5645 5641 5638 5634 5631 5628 5624 5621 5618 5615 5613 5612 5611 5610 5609 5613 5618 5622 5626 5631 5635 5639 5648 5654 5659 5659 5664 5672 5678 5684 5688 5692
5693 5687 5681 5676 5672 5667 5664 5659 5654 5649 5645 5641 5636 5632 5628 5624 5620 5616 5612 5610 5607 5605 5603 5601 5601 5601 5602 5603 5608 5613 5619 5624 5628 5633 5642 5648 5651 5656 5662 5668 5676 5682 5686
5691 5684 5678 5673 5669 5664 5660 5655 5650 5645 5639 5635 5630 5625 5620 5616 5612 5608 5604 5601 5599 5596 5595 5593 5592 5592 5592 5594 5596 5601 5608 5614 5618 5624 5631 5639 5644 5649 5653 5659 5666 5671 5677
5688 5682 5676 5670 5666 5661 5656 5651 5645 5640 5634 5628 5623 5618 5613 5608 5604 5600 5597 5593 5590 5588 5586 5585 5584 5584 5584 5584 5587 5590 5594 5600 5607 5613 5622 5630 5636 5641 5645 5649 5655 5661 5667
5684 5678 5673 5669 5663 5658 5652 5646 5640 5634 5628 5622 5616 5611 5605 5600 5597 5593 5588 5584 5582 5580 5579 5578 5578 5577 5576 5576 5579 5583 5586 5590 5597 5605 5612 5620 5627 5632 5638 5644 5647 5652 5657
5679 5675 5670 5664 5659 5653 5648 5642 5635 5628 5621 5615 5609 5603 5597 5594 5589 5580 5574 5573 5572 5572 5571 5571 5571 5570 5568 5565 5566 5567 5570 5577 5586 5593 5602 5609 5615 5624 5630 5636 5639 5642 5647
5676 5671 5666 5661 5654 5649 5643 5636 5629 5622 5615 5608 5602 5595 5590 5586 5578 5571 5565 5562 5564 5564 5564 5564 5565 5569 5565 5564 5562 5559 5560 5563 5566 5573 5586 5596 5605 5612 5619 5626 5630 5636 5642
5674 5668 5663 5656 5650 5643 5636 5629 5621 5615 5608 5601 5595 5589 5583 5579 5572 5565 5559 5557 5558 5559 5559 5558 5558 5557 5557 5556 5556 5558 5560 5562 5562 5564 5571 5582 5589 5596 5605 5613 5622 5628 5633
5671 5664 5658 5651 5644 5636 5629 5622 5615 5607 5601 5594 5589 5583 5578 5574 5567 5560 5552 5555 5557 5557 5556 5555 5553 5551 5548 5544 5544 5548 5551 5554 5556 5558 5563 5569 5574 5581 5588 5598 5611 5618 5622
5667 5660 5652 5644 5636 5629 5621 5614 5608 5600 5594 5588 5584 5578 5574 5570 5564 5556 5549 5551 5553 5553 5552 5550 5546 5543 5540 5534 5534 5537 5541 5545 5548 5554 5554 5558 5564 5571 5577 5585 5599 5610 5617
5663 5654 5646 5638 5630 5622 5614 5607 5600 5594 5589 5583 5578 5574 5570 5567 5562 5555 5547 5546 5548 5548 5547 5546 5544 5538 5531 5526 5523 5527 5531 5533 5538 5542 5548 5555 5561 5568 5576 5584 5592 5602 5611
5656 5648 5640 5632 5624 5618 5608 5601 5594 5589 5583 5578 5574 5571 5569 5566 5560 5556 5547 5540 5537 5539 5539 5539 5538 5529 5524 5519 5517 5519 5518 5518 5526 5532 5539 5547 5556 5565 5573 5580 5589 5596 5605
5649 5641 5633 5626 5618 5610 5602 5596 5590 5585 5580 5576 5572 5569 5568 5566 5561 5552 5544 5538 5532 5531 5534 5532 5526 5520 5516 5515 5513 5511 5509 5513 5518 5524 5531 5539 5547 5556 5565 5571 5579 5586 5593
5641 5634 5627 5619 5612 5605 5598 5592 5588 5583 5578 5574 5569 5566 5564 5562 5558 5553 5548 5541 5532 5529 5528 5526 5520 5516 5513 5512 5513 5511 5510 5512 5514 5517 5523 5529 5536 5544 5553 5563 5571 5578 5584
5634 5627 5621 5615 5609 5600 5594 5588 5583 5578 5573 5567 5565 5562 5559 5557 5554 5542 5537 5536 5533 5529 5523 5522 5523 5523 5521 5520 5518 5515 5512 5510 5508 5510 5512 5517 5525 5533 5544 5554 5563 5572 5579
5629 5622 5617 5611 5604 5597 5591 5587 5582 5573 5567 5560 5554 5549 5552 5547 5542 5535 5530 5524 5519 5514 5512 5520 5524 5524 5522 5521 5518 5515 5510 5507 5505 5504 5505 5510 5517 5525 5534 5544 5554 5563 5574
5623 5617 5611 5605 5599 5592 5587 5582 5578 5574 5565 5559 5554 5548 5543 5541 5537 5532 5527 5522 5517 5510 5513 5521 5524 5524 5523 5521 5517 5513 5510 5507 5504 5502 5503 5506 5512 5519 5528 5537 5548 5558 5568
5616 5611 5602 5596 5591 5586 5581 5577 5573 5569 5566 5565 5558 5551 5544 5540 5535 5531 5525 5520 5523 5519 5522 5526 5527 5526 5525 5521 5517 5513 5510 5507 5505 5503 5503 5506 5510 5517 5524 5534 5544 5555 5564
5608 5603 5597 5591 5585 5580 5576 5572 5568 5564 5562 5560 5558 5555 5548 5542 5535 5530 5524 5524 5528 5530 5529 5529 5529 5529 5527 5524 5520 5515 5511 5508 5506 5505 5506 5508 5511 5517 5524 5533 5544 5551 5560
5600 5593 5586 5582 5578 5574 5571 5567 5564 5561 5558 5556 5555 5553 5550 5546 5544 5539 5531 5529 5528 5530 5529 5528 5529 5529 5528 5526 5522 5518 5514 5511 5510 5509 5509 5511 5514 5519 5526 5535 5544 5552 5559
5592 5588 5576 5571 5569 5567 5564 5561 5559 5556 5554 5552 5551 5549 5540 5542 5542 5539 5535 5532 5530 5531 5530 5528 5528 5528 5528 5526 5525 5522 5519 5516 5515 5515 5515 5517 5520 5524 5530 5537 5545 5553 5559
5581 5577 5573 5568 5564 5560 5557 5554 5553 5551 5549 5548 5547 5546 5540 5538 5539 5537 5534 5532 5531 5529 5528 5527 5528 5528 5528 5529 5527 5525 5524 5521 5520 5519 5520 5522 5524 5528 5533 5539 5546 5552 5558
5568 5565 5561 5558 5553 5548 5546 5547 5547 5546 5545 5544 5542 5541 5540 5537 5536 5533 5532 5530 5528 5527 5526 5526 5526 5527 5529 5529 5528 5527 5527 5525 5523 5523 5524 5526 5528 5531 5536 5541 5546 5551 5557
5555 5552 5549 5547 5544 5542 5541 5540 5541 5541 5540 5538 5537 5535 5533 5532 5531 5530 5528 5526 5524 5524 5524 5524 5525 5526 5527 5528 5529 5529 5529 5528 5527 5526 5526 5528 5530 5533 5537 5541 5546 5552 5556
5541 5539 5536 5534 5533 5532 5532 5533 5533 5533 5531 5531 5530 5528 5527 5527 5526 5525 5523 5522 5521 5521 5522 5522 5523 5525 5527 5528 5528 5530 5527 5526 5526 5527 5528 5530 5533 5536 5539 5543 5547 5551 5554
5524 5523 5522 5521 5521 5522 5523 5523 5524 5523 5522 5523 5522 5521 5521 5521 5520 5519 5519 5518 5518 5519 5519 5520 5521 5523 5525 5527 5528 5526 5524 5524 5524 5524 5528 5531 5535 5538 5541 5545 5549 5551 5553